SCP
0 0 -0 -0 0 -0 -0 0 0 0 -0 -0 0 0 -0 0 0 0 0 -0 -0 -0 -0 -0 -0 0 0 0 0 0 0 0 0 0 0 0 0 0 0 0 0 0 0 0 0 0 0
0 0 0 0 0 0 -0 -0 0 0 -0 -0 -0 0 0 -0 0 0 0 -0 -0 -0 0 -0 -0 -0 0 0 0 0 0 0 0 0 0 0 0 0 0 0 0 0 0 0 0 0 0
0 0 -0 0 0 0 0 0 -0 0 0 -0 0 0 0 0 -0 0 0 0 0 0 -0 0 -0 -0 -0 0 0 0 0 0 0 0 0 0 0 0 0 0 0 0 0 0 0 0 0
0 0 0 0 0 0 0 0 -0 -0 0 0 -0 0 0 0 -0 0 0 0 0 0 0 0 -0 0 -0 -0 0 0 0 0 0 0 0 0 0 0 0 0 0 0 0 0 0 0 0
0 0 0 0 0 0 0 0 0 0 0 0 -0 -0 0 0 0 0 0 0 0 0 0 0 0 0 -0 0 0 0 0 0 0 0 0 0 0 0 0 0 0 0 0 0 0 0 0
0 0 0 0 0 0 0 0 0 0 -0 0 0 -0 -0 0 0 -0 0 0 0 0 0 0 0 0 0 -0 0 0 0 0 0 0 0 0 0 0 0 0 0 0 0 0 0 0 0
0 0 0 0 0 0 0 0 0 0 0 -0 0 0 -0 0 0 0 0 0 0 0 0 0 0 0 0 0 0 0 0 0 0 0 0 0 0 0 0 0 0 0 0 0 0 0 0
0 0 0 0 0 0 0 0 0 0 0 0 0 0 0 0 0 0 0 0 0 0 0 0 0 0 0 0 0 0 0 0 0 0 0 0 0 0 0 0 0 0 0 0 0 0 0
0 0 0 -0 0 0 0 0 0 0 0 0 0 0 0 0 0 0 0 0 0 0 0 0 0 0 0 0 0 0 0 0 0 0 0 0 0 0 0 0 0 0 0 0 0 0 0
0 0 0 0 0 0 0 -0 0 0 0 0 0 0 0 0 0 0 0 0 0 0 0 0 0 0 0 0 0 0 0 0 0 0 0 0 0 0 0 0 0 0 0 0 0 0 0
0 0 0 0 0 -0 -0 -0 -0 0 0 0 0 0 0 0 0 0 0 0 0 0 0 0 0 0 0 0 0 0 0 0 0 0 0 0 0 0 0 0 0 0 0 0 0 0 0
0 0 0 0 -0 0 -0 0 0 0 0 0 0 0 0 0 0 0 0 0 0 0 0 0 0 0 0 0 0 0 0 0 0 0 0 0 0 0 0 0 0 0 0 0 0 0 0
0 0 0 -0 -0 -0 0 0 0 0 0 0 0 0 0 0 0 0 0 0 0 0 0 0 0 0 0 0 0 0 0 0 0 0 0 0 0 0 0 0 0 0 0 0 0 0 0
0 0 0 -0 -0 -0 0 0 0 0 0 0 0 0 0 0 0 0 0 0 0 0 0 0 0 0 0 0 0 0 0 0 0 0 0 0 0 0 0 0 0 0 0 0 0 0 0
0 0 -0 -0 -0 -0 -0 -0 0 0 0 0 0 0 0 0 0 0 0 0 0 0 0 0 0 0 0 0 0 0 0 0 0 0 0 0 0 0 0 0 0 0 0 0 0 0 0
0 0 0 -0 -0 -0 -0 0 0 0 0 0 0 0 0 0 0 0 0 0 0 0 0 0 0 0 0 0 0 0 0 0 0 0 0 0 0 0 0 0 0 0 0 0 0 0 0
0 -0 0 -0 -0 -0 -0 0 0 0 0 0 0 0 0 0 0 0 0 0 0 0 0 0 0 0 0 0 0 0 0 0 0 0 0 0 0 0 0 0 0 0 0 0 0 0 0
0 -0 0 -0 -0 -0 -0 -0 -0 -0 0 0 0 0 0 0 0 0 0 0 0 0 0 0 0 0 0 0 0 0 0 0 0 0 0 0 0 0 0 0 0 0 0 0 0 0 0
0 -0 0 -0 -0 -0 -0 -0 -0 -0 0 0 0 0 0 0 0 0 0 0 0 0 0 0 0 0 0 0 0 0 0 0 0 0 0 0 0 0 0 0 0 0 0 0 0 0 0
0 -0 0 -0 -0 -0 -0 -0 -0 -0 0 0 0 0 0 0 0 0 0 0 0 0 0 0 0 -0 0 0 0 0 0 0 0 0 0 0 0 0 0 0 0 0 0 0 0 0 0
-0 -0 -0 -0 -0 -0 -0 -0 -0 -0 -0 0 0 0 0 0 0 0 0 0 0 0 0 0 0 0 0 0 0 0 0 0 0 0 0 0 0 0 0 0 0 0 0 0 0 0 0
-0 -0 -0 -0 -0 -0 -0 -0 -0 -0 0 0 0 0 0 0 0 0 0 0 0 0 0 0 0 0 -0 -0 0 0 0 0 0 0 0 0 0 0 0 0 0 0 0 0 0 0 0
-0 -0 0 -0 -0 -0 -0 0 0 0 0 0 0 0 0 0 0 0 0 0 0 0 0 0 0 0 0 0 0 0 0 0 0 0 0 0 0 0 0 0 0 0 0 0 0 0 0
-0 -0 -0 -0 0 -0 -0 0 0 0 0 0 0 0 0 0 0 0 0 0 0 0 0 0 0 0 0 0 0 0 0 0 0 0 0 0 0 0 0 0 0 0 0 0 0 0 0
0 -0 -0 0 0 0 -0 0 0 0 -0 0 0 0 0 0 0 0 0 0 0 0 0 0 0 0 0 0 0 0 0 0 0 0 0 0 0 0 0 0 0 0 0 0 0 0 0
0 -0 -0 0 0 0 0 0 0 0 0 0 0 0 0 0 0 0 0 0 0 0 0 0 0 0 0 0 0 0 0 0 0 0 0 0 0 0 0 0 0 0 0 0 0 0 0
0 -0 -0 -0 0 0 0 0 0 0 0 0 0 0 0 0 0 0 0 0 0 0 0 0 0 0 0 0 0 0 0 0 0 0 0 0 0 0 0 0 0 0 0 0 0 0 0
0 0 -0 -0 0 0 0 0 0 0 0 0 0 0 0 0 0 0 0 0 0 0 0 0 0 0 0 0 0 0 0 0 0 0 0 0 0 0 0 0 0 0 0 0 0 0 0
-0 0 -0 -0 0 0 0 0 0 0 0 0 0 0 0 0 0 0 0 0 0 0 0 0 0 0 0 0 0 0 0 0 0 0 0 0 0 0 0 0 0 0 0 0 -0 0 0
Wind_Speed_500mb
41 41 43 41 43 48 50 39 31 16 23 22 24 25 34 46 33 30 34 21 18 45 52 46 17 4 13 11 7 4 27 34 32 29 23 13 13 7 8 15 8 3 11 14 10 11 16
41 42 42 46 41 43 47 43 27 17 16 25 20 19 24 17 34 17 41 29 34 27 38 56 53 32 26 20 10 7 22 23 18 17 20 23 10 14 9 8 0 10 12 17 8 12 9
45 45 44 48 53 45 39 42 29 21 21 17 18 27 20 14 28 27 42 42 34 40 37 37 18 30 24 32 11 15 16 12 20 16 17 25 20 11 16 10 11 14 9 4 8 8 7
49 47 51 54 49 50 46 40 31 27 22 25 21 30 28 26 21 24 16 43 42 42 39 34 28 35 14 9 39 27 17 16 17 20 16 19 24 20 10 21 9 8 5 8 8 14 3
55 54 56 51 50 47 46 46 37 31 27 24 24 22 22 23 21 19 28 46 48 39 40 42 50 31 12 17 37 28 26 16 19 20 16 22 19 10 13 10 8 6 6 11 5 8 7
56 56 55 55 54 48 45 45 42 35 31 27 22 18 18 21 17 14 25 5 56 43 53 41 22 12 18 29 47 35 29 23 17 24 20 12 9 9 7 8 9 11 8 5 9 10 4
56 58 57 55 53 47 48 44 43 37 32 32 26 21 16 20 13 13 21 29 37 18 59 19 27 8 24 29 36 40 42 29 19 23 10 14 7 14 19 19 10 5 7 10 16 4 1
60 61 61 58 56 53 51 48 44 41 34 30 25 21 17 23 14 11 9 4 15 17 16 19 8 16 32 32 14 29 43 26 24 12 13 7 13 18 17 17 11 5 9 5 8 10 2
62 66 65 62 55 53 51 51 48 45 35 30 26 21 14 21 14 16 21 20 14 34 12 14 7 37 19 23 11 42 42 18 17 18 20 16 2 12 13 14 19 13 13 9 9 4 9
65 68 65 62 58 53 50 51 51 48 39 31 28 22 15 17 13 21 21 28 20 20 6 16 11 21 23 24 5 38 45 18 11 21 16 11 7 18 16 15 15 13 8 15 15 7 4
64 70 67 65 58 56 52 53 53 51 43 30 27 23 17 19 6 27 28 19 18 6 10 28 17 18 44 32 35 23 32 15 15 13 12 8 11 19 16 19 16 7 18 14 9 5 9
64 68 66 65 61 52 45 53 56 55 46 33 30 24 23 24 12 12 34 30 26 3 7 8 17 29 30 30 14 35 18 11 15 10 14 8 7 4 1 6 13 15 24 19 7 3 2
60 65 62 64 66 53 20 42 53 53 44 32 33 25 27 21 16 39 46 26 4 4 5 8 10 27 31 21 20 27 28 16 12 12 11 11 6 5 2 17 9 10 11 5 4 2 10
56 60 56 56 60 45 12 34 45 47 40 35 34 25 28 19 15 29 36 6 7 5 6 2 11 32 14 30 14 30 31 21 19 10 16 10 4 14 7 7 15 16 7 9 14 10 8
51 56 51 46 46 38 23 29 36 37 34 36 36 28 25 18 26 23 15 4 3 4 8 7 20 23 11 23 15 26 28 23 21 21 9 11 7 6 14 2 19 9 9 2 11 3 6
46 49 47 40 33 28 21 29 22 30 34 41 41 33 18 21 26 22 10 10 6 9 3 2 4 5 11 29 17 23 29 27 20 18 11 11 11 10 2 2 4 3 14 6 5 8 7
44 43 42 33 26 20 12 14 14 27 38 44 37 15 13 15 29 9 3 9 3 5 8 5 5 4 7 20 14 22 27 22 22 22 3 5 9 9 11 12 17 7 7 7 8 6 8
39 35 39 28 21 13 10 10 22 29 45 40 19 6 24 27 6 5 2 3 9 5 5 6 6 3 6 17 20 24 23 7 42 35 12 3 10 10 12 6 7 12 9 9 7 9 5
30 27 29 26 19 12 11 10 22 31 41 33 14 9 21 18 5 6 3 4 3 5 3 5 7 2 4 7 11 17 19 26 44 29 17 12 7 10 9 5 3 6 10 7 5 5 10
19 20 22 17 21 13 12 9 18 33 39 31 11 6 3 8 5 5 10 5 5 8 5 4 6 8 6 7 9 16 20 7 38 38 8 15 9 11 14 11 17 13 19 19 15 5 9
11 14 16 17 17 16 10 7 20 28 40 27 8 5 8 8 7 8 6 13 16 10 6 8 4 12 10 7 4 10 16 6 7 24 16 6 5 2 9 9 9 15 27 35 33 26 14
9 11 9 9 11 14 11 6 13 24 39 25 11 8 9 4 22 9 7 10 13 7 14 7 1 9 8 6 8 7 11 9 9 17 15 4 2 5 8 9 9 7 19 32 40 34 37
8 9 7 7 5 5 4 8 11 31 38 12 14 16 10 18 11 13 8 6 12 13 8 5 17 6 10 4 16 6 14 2 7 20 22 14 9 5 5 2 5 17 16 20 17 34 26
6 10 9 6 6 5 1 3 5 8 21 42 17 17 9 5 13 17 6 18 15 14 7 14 21 13 11 12 13 9 5 7 15 13 23 16 14 5 5 4 8 7 3 22 41 38 33
6 10 11 8 7 10 11 6 11 12 18 28 31 30 13 5 25 13 12 8 20 26 17 14 16 10 30 25 6 4 2 4 4 8 24 11 9 7 9 10 14 9 10 14 15 21 32
13 10 13 10 10 9 13 10 11 16 17 24 35 37 27 7 16 26 16 27 8 7 2 8 15 17 25 6 5 10 10 7 9 7 9 3 12 8 7 10 15 7 4 8 13 12 21
18 17 16 16 13 12 13 12 5 11 16 25 42 41 43 24 24 37 13 21 23 17 6 4 10 7 23 5 6 7 6 2 12 20 12 10 7 22 9 8 13 10 15 21 11 10 3
22 22 22 22 18 16 18 18 11 7 12 25 38 36 62 21 26 43 42 20 29 37 8 15 11 3 6 7 5 7 6 8 3 13 14 17 14 9 6 4 18 25 10 17 7 10 11
23 23 28 27 21 20 21 24 24 23 30 29 43 40 55 41 18 51 41 37 48 41 28 46 15 13 20 5 8 5 3 3 8 9 3 12 13 11 16 11 5 52 7 31 10 14 10
Wind_Direction_500mb
316 315 315 314 316 315 318 320 326 296 312 321 300 282 258 263 292 198 211 200 206 238 226 241 236 294 311 326 300 234 192 196 202 204 204 183 193 205 227 129 157 231 111 84 95 79 56
317 315 313 310 310 310 311 316 315 292 296 317 287 285 273 287 276 287 198 194 183 175 220 252 251 286 271 272 269 191 149 155 155 171 193 173 190 180 94 96 261 62 122 112 112 95 68
313 307 309 309 313 310 303 305 296 286 269 286 311 286 267 269 285 258 191 189 182 182 187 201 210 213 214 238 261 247 209 160 146 138 166 184 171 143 135 103 110 135 113 133 157 134 92
317 309 307 306 303 301 305 304 283 270 273 271 292 328 236 255 262 247 194 191 173 176 182 190 183 177 218 251 231 238 198 196 178 169 175 156 143 133 99 123 102 142 320 161 128 124 51
313 310 309 309 308 299 290 296 296 274 268 278 282 320 233 250 265 253 257 188 183 183 181 177 169 143 167 210 206 221 180 187 160 151 155 144 127 127 130 158 108 192 186 196 168 226 111
323 321 314 311 304 296 289 280 290 281 266 265 275 280 238 247 271 243 250 231 179 174 162 146 146 148 184 198 194 199 172 184 141 148 125 143 145 160 182 181 174 169 207 103 152 181 210
324 320 315 311 307 300 287 274 272 282 263 254 261 267 270 230 240 243 250 160 159 125 159 155 180 63 147 145 176 179 176 172 155 158 156 182 171 194 183 195 239 35 266 204 92 101 135
326 325 318 312 304 295 286 273 258 259 255 258 248 250 273 215 214 213 226 90 88 142 130 144 89 183 143 141 149 173 166 165 169 179 146 104 223 206 198 194 216 221 257 181 85 100 163
330 328 322 317 310 298 283 268 254 246 248 249 238 235 254 210 228 196 184 187 139 123 113 209 216 184 142 165 170 181 176 183 188 190 184 171 41 180 145 129 152 208 209 212 98 159 223
333 330 326 322 313 298 280 260 246 237 237 237 226 223 225 183 218 202 172 197 150 125 117 157 212 189 164 147 194 184 180 169 198 195 168 256 142 136 140 163 177 181 173 83 110 103 220
337 335 333 329 322 303 274 252 234 226 222 220 216 210 203 178 200 190 177 165 196 158 194 151 161 172 170 170 147 187 178 203 198 167 137 192 161 160 174 184 178 121 115 130 129 174 57
342 339 340 339 335 319 278 235 217 211 208 204 203 196 181 185 182 199 166 156 153 150 191 160 145 166 155 180 188 144 149 147 164 100 43 71 337 92 305 73 117 133 100 82 84 99 297
346 345 347 349 350 343 291 204 195 195 194 193 189 182 173 184 182 165 156 126 112 248 360 142 165 161 161 167 145 164 163 165 152 132 157 112 78 38 108 79 118 127 121 75 17 24 221
348 351 353 359 5 11 70 163 175 180 180 180 178 163 166 191 166 187 153 84 215 148 168 225 160 152 171 154 141 176 166 177 222 200 137 148 206 175 204 179 173 181 158 161 188 187 188
350 354 356 2 14 27 74 139 157 166 171 170 160 149 152 164 150 141 133 199 27 60 120 174 129 160 139 177 133 172 184 191 199 204 144 136 82 41 144 29 142 192 205 7 105 11 66
350 353 357 3 22 31 58 113 145 160 166 160 146 135 117 158 162 149 75 333 1 332 24 338 118 187 165 175 145 173 179 198 183 214 45 119 113 165 29 287 187 166 144 73 326 137 227
348 355 358 5 14 48 87 111 155 159 158 153 131 95 133 133 153 97 133 188 171 234 330 46 101 111 174 173 155 178 183 167 169 195 192 126 112 147 137 221 171 189 191 229 133 134 177
346 356 359 6 12 45 68 159 161 165 161 152 113 85 149 142 69 72 153 197 156 132 81 109 91 118 39 187 171 179 188 167 171 159 179 143 105 157 188 40 4 244 190 202 144 206 230
346 0 7 18 20 48 71 145 163 175 174 157 91 86 154 171 154 180 331 270 209 132 168 187 128 257 135 346 186 179 178 207 153 166 170 187 154 114 167 330 116 222 232 251 263 98 206
350 9 15 31 35 65 87 122 166 175 175 172 109 112 173 197 286 175 176 181 154 160 175 215 120 138 183 68 313 196 149 126 167 179 223 165 179 156 178 192 143 187 210 216 229 153 164
10 15 27 48 46 57 86 121 168 181 178 175 129 137 168 182 243 299 191 169 161 172 194 198 191 220 144 132 277 177 147 90 90 174 200 199 178 170 64 96 178 172 192 207 220 222 215
18 6 14 49 63 59 76 107 180 189 192 175 132 134 137 203 158 187 213 223 204 188 175 205 120 191 148 138 159 228 146 147 159 189 194 214 264 91 17 19 36 242 218 213 220 226 242
351 350 353 18 38 82 67 80 126 187 196 185 174 157 158 175 174 184 217 197 219 201 196 127 188 148 179 148 127 143 316 291 188 170 186 168 130 102 194 62 28 278 211 226 234 226 222
329 318 335 343 359 355 264 224 171 169 204 222 194 167 180 213 197 202 265 201 231 216 259 184 189 155 175 93 115 96 172 18 278 188 187 140 128 109 128 45 243 251 303 223 225 232 232
284 293 308 319 324 350 348 247 220 227 217 225 233 209 194 222 205 209 213 243 202 244 207 177 202 171 156 134 96 89 33 26 308 314 194 154 143 131 144 206 294 277 206 188 177 252 234
267 273 287 295 294 314 342 338 247 228 228 230 238 233 234 274 226 199 180 195 159 176 36 180 208 196 172 93 144 182 205 156 177 180 344 328 169 128 179 170 215 241 185 135 97 294 228
255 258 270 279 289 279 303 331 289 245 232 240 242 238 231 249 253 202 187 188 183 168 129 138 180 164 198 138 182 184 218 136 169 171 162 185 164 203 196 226 279 193 162 154 104 233 102
254 258 263 270 279 268 275 291 291 299 289 257 258 245 225 233 238 219 214 190 182 178 145 163 120 221 133 206 181 185 202 201 168 167 179 173 176 175 151 212 260 154 121 168 204 156 137
258 258 253 263 270 271 266 278 291 299 296 298 255 250 226 215 220 213 218 203 200 191 181 171 172 156 170 145 192 144 211 135 178 191 255 199 188 168 187 214 196 177 203 211 210 164 134
Wind_Speed_850mb
41 41 43 41 43 48 50 39 31 16 23 22 24 25 34 46 33 30 34 21 18 45 52 46 17 4 13 11 7 4 27 34 32 29 23 13 13 7 8 15 8 3 11 14 10 11 16
41 42 42 46 41 43 47 43 27 17 16 25 20 19 24 17 34 17 41 29 34 27 38 56 53 32 26 20 10 7 22 23 18 17 20 23 10 14 9 8 0 10 12 17 8 12 9
45 45 44 48 53 45 39 42 29 21 21 17 18 27 20 14 28 27 42 42 34 40 37 37 18 30 24 32 11 15 16 12 20 16 17 25 20 11 16 10 11 14 9 4 8 8 7
49 47 51 54 49 50 46 40 31 27 22 25 21 30 28 26 21 24 16 43 42 42 39 34 28 35 14 9 39 27 17 16 17 20 16 19 24 20 10 21 9 8 5 8 8 14 3
55 54 56 51 50 47 46 46 37 31 27 24 24 22 22 23 21 19 28 46 48 39 40 42 50 31 12 17 37 28 26 16 19 20 16 22 19 10 13 10 8 6 6 11 5 8 7
56 56 55 55 54 48 45 45 42 35 31 27 22 18 18 21 17 14 25 5 56 43 53 41 22 12 18 29 47 35 29 23 17 24 20 12 9 9 7 8 9 11 8 5 9 10 4
56 58 57 55 53 47 48 44 43 37 32 32 26 21 16 20 13 13 21 29 37 18 59 19 27 8 24 29 36 40 42 29 19 23 10 14 7 14 19 19 10 5 7 10 16 4 1
60 61 61 58 56 53 51 48 44 41 34 30 25 21 17 23 14 11 9 4 15 17 16 19 8 16 32 32 14 29 43 26 24 12 13 7 13 18 17 17 11 5 9 5 8 10 2
62 66 65 62 55 53 51 51 48 45 35 30 26 21 14 21 14 16 21 20 14 34 12 14 7 37 19 23 11 42 42 18 17 18 20 16 2 12 13 14 19 13 13 9 9 4 9
65 68 65 62 58 53 50 51 51 48 39 31 28 22 15 17 13 21 21 28 20 20 6 16 11 21 23 24 5 38 45 18 11 21 16 11 7 18 16 15 15 13 8 15 15 7 4
64 70 67 65 58 56 52 53 53 51 43 30 27 23 17 19 6 27 28 19 18 6 10 28 17 18 44 32 35 23 32 15 15 13 12 8 11 19 16 19 16 7 18 14 9 5 9
64 68 66 65 61 52 45 53 56 55 46 33 30 24 23 24 12 12 34 30 26 3 7 8 17 29 30 30 14 35 18 11 15 10 14 8 7 4 1 6 13 15 24 19 7 3 2
60 65 62 64 66 53 20 42 53 53 44 32 33 25 27 21 16 39 46 26 4 4 5 8 10 27 31 21 20 27 28 16 12 12 11 11 6 5 2 17 9 10 11 5 4 2 10
56 60 56 56 60 45 12 34 45 47 40 35 34 25 28 19 15 29 36 6 7 5 6 2 11 32 14 30 14 30 31 21 19 10 16 10 4 14 7 7 15 16 7 9 14 10 8
51 56 51 46 46 38 23 29 36 37 34 36 36 28 25 18 26 23 15 4 3 4 8 7 20 23 11 23 15 26 28 23 21 21 9 11 7 6 14 2 19 9 9 2 11 3 6
46 49 47 40 33 28 21 29 22 30 34 41 41 33 18 21 26 22 10 10 6 9 3 2 4 5 11 29 17 23 29 27 20 18 11 11 11 10 2 2 4 3 14 6 5 8 7
44 43 42 33 26 20 12 14 14 27 38 44 37 15 13 15 29 9 3 9 3 5 8 5 5 4 7 20 14 22 27 22 22 22 3 5 9 9 11 12 17 7 7 7 8 6 8
39 35 39 28 21 13 10 10 22 29 45 40 19 6 24 27 6 5 2 3 9 5 5 6 6 3 6 17 20 24 23 7 42 35 12 3 10 10 12 6 7 12 9 9 7 9 5
30 27 29 26 19 12 11 10 22 31 41 33 14 9 21 18 5 6 3 4 3 5 3 5 7 2 4 7 11 17 19 26 44 29 17 12 7 10 9 5 3 6 10 7 5 5 10
19 20 22 17 21 13 12 9 18 33 39 31 11 6 3 8 5 5 10 5 5 8 5 4 6 8 6 7 9 16 20 7 38 38 8 15 9 11 14 11 17 13 19 19 15 5 9
11 14 16 17 17 16 10 7 20 28 40 27 8 5 8 8 7 8 6 13 16 10 6 8 4 12 10 7 4 10 16 6 7 24 16 6 5 2 9 9 9 15 27 35 33 26 14
9 11 9 9 11 14 11 6 13 24 39 25 11 8 9 4 22 9 7 10 13 7 14 7 1 9 8 6 8 7 11 9 9 17 15 4 2 5 8 9 9 7 19 32 40 34 37
8 9 7 7 5 5 4 8 11 31 38 12 14 16 10 18 11 13 8 6 12 13 8 5 17 6 10 4 16 6 14 2 7 20 22 14 9 5 5 2 5 17 16 20 17 34 26
6 10 9 6 6 5 1 3 5 8 21 42 17 17 9 5 13 17 6 18 15 14 7 14 21 13 11 12 13 9 5 7 15 13 23 16 14 5 5 4 8 7 3 22 41 38 33
6 10 11 8 7 10 11 6 11 12 18 28 31 30 13 5 25 13 12 8 20 26 17 14 16 10 30 25 6 4 2 4 4 8 24 11 9 7 9 10 14 9 10 14 15 21 32
13 10 13 10 10 9 13 10 11 16 17 24 35 37 27 7 16 26 16 27 8 7 2 8 15 17 25 6 5 10 10 7 9 7 9 3 12 8 7 10 15 7 4 8 13 12 21
18 17 16 16 13 12 13 12 5 11 16 25 42 41 43 24 24 37 13 21 23 17 6 4 10 7 23 5 6 7 6 2 12 20 12 10 7 22 9 8 13 10 15 21 11 10 3
22 22 22 22 18 16 18 18 11 7 12 25 38 36 62 21 26 43 42 20 29 37 8 15 11 3 6 7 5 7 6 8 3 13 14 17 14 9 6 4 18 25 10 17 7 10 11
23 23 28 27 21 20 21 24 24 23 30 29 43 40 55 41 18 51 41 37 48 41 28 46 15 13 20 5 8 5 3 3 8 9 3 12 13 11 16 11 5 52 7 31 10 14 10
Wind_Direction_850mb
316 315 315 314 316 315 318 320 326 296 312 321 300 282 258 263 292 198 211 200 206 238 226 241 236 294 311 326 300 234 192 196 202 204 204 183 193 205 227 129 157 231 111 84 95 79 56
317 315 313 310 310 310 311 316 315 292 296 317 287 285 273 287 276 287 198 194 183 175 220 252 251 286 271 272 269 191 149 155 155 171 193 173 190 180 94 96 261 62 122 112 112 95 68
313 307 309 309 313 310 303 305 296 286 269 286 311 286 267 269 285 258 191 189 182 182 187 201 210 213 214 238 261 247 209 160 146 138 166 184 171 143 135 103 110 135 113 133 157 134 92
317 309 307 306 303 301 305 304 283 270 273 271 292 328 236 255 262 247 194 191 173 176 182 190 183 177 218 251 231 238 198 196 178 169 175 156 143 133 99 123 102 142 320 161 128 124 51
313 310 309 309 308 299 290 296 296 274 268 278 282 320 233 250 265 253 257 188 183 183 181 177 169 143 167 210 206 221 180 187 160 151 155 144 127 127 130 158 108 192 186 196 168 226 111
323 321 314 311 304 296 289 280 290 281 266 265 275 280 238 247 271 243 250 231 179 174 162 146 146 148 184 198 194 199 172 184 141 148 125 143 145 160 182 181 174 169 207 103 152 181 210
324 320 315 311 307 300 287 274 272 282 263 254 261 267 270 230 240 243 250 160 159 125 159 155 180 63 147 145 176 179 176 172 155 158 156 182 171 194 183 195 239 35 266 204 92 101 135
326 325 318 312 304 295 286 273 258 259 255 258 248 250 273 215 214 213 226 90 88 142 130 144 89 183 143 141 149 173 166 165 169 179 146 104 223 206 198 194 216 221 257 181 85 100 163
330 328 322 317 310 298 283 268 254 246 248 249 238 235 254 210 228 196 184 187 139 123 113 209 216 184 142 165 170 181 176 183 188 190 184 171 41 180 145 129 152 208 209 212 98 159 223
333 330 326 322 313 298 280 260 246 237 237 237 226 223 225 183 218 202 172 197 150 125 117 157 212 189 164 147 194 184 180 169 198 195 168 256 142 136 140 163 177 181 173 83 110 103 220
337 335 333 329 322 303 274 252 234 226 222 220 216 210 203 178 200 190 177 165 196 158 194 151 161 172 170 170 147 187 178 203 198 167 137 192 161 160 174 184 178 121 115 130 129 174 57
342 339 340 339 335 319 278 235 217 211 208 204 203 196 181 185 182 199 166 156 153 150 191 160 145 166 155 180 188 144 149 147 164 100 43 71 337 92 305 73 117 133 100 82 84 99 297
346 345 347 349 350 343 291 204 195 195 194 193 189 182 173 184 182 165 156 126 112 248 360 142 165 161 161 167 145 164 163 165 152 132 157 112 78 38 108 79 118 127 121 75 17 24 221
348 351 353 359 5 11 70 163 175 180 180 180 178 163 166 191 166 187 153 84 215 148 168 225 160 152 171 154 141 176 166 177 222 200 137 148 206 175 204 179 173 181 158 161 188 187 188
350 354 356 2 14 27 74 139 157 166 171 170 160 149 152 164 150 141 133 199 27 60 120 174 129 160 139 177 133 172 184 191 199 204 144 136 82 41 144 29 142 192 205 7 105 11 66
350 353 357 3 22 31 58 113 145 160 166 160 146 135 117 158 162 149 75 333 1 332 24 338 118 187 165 175 145 173 179 198 183 214 45 119 113 165 29 287 187 166 144 73 326 137 227
348 355 358 5 14 48 87 111 155 159 158 153 131 95 133 133 153 97 133 188 171 234 330 46 101 111 174 173 155 178 183 167 169 195 192 126 112 147 137 221 171 189 191 229 133 134 177
346 356 359 6 12 45 68 159 161 165 161 152 113 85 149 142 69 72 153 197 156 132 81 109 91 118 39 187 171 179 188 167 171 159 179 143 105 157 188 40 4 244 190 202 144 206 230
346 0 7 18 20 48 71 145 163 175 174 157 91 86 154 171 154 180 331 270 209 132 168 187 128 257 135 346 186 179 178 207 153 166 170 187 154 114 167 330 116 222 232 251 263 98 206
350 9 15 31 35 65 87 122 166 175 175 172 109 112 173 197 286 175 176 181 154 160 175 215 120 138 183 68 313 196 149 126 167 179 223 165 179 156 178 192 143 187 210 216 229 153 164
10 15 27 48 46 57 86 121 168 181 178 175 129 137 168 182 243 299 191 169 161 172 194 198 191 220 144 132 277 177 147 90 90 174 200 199 178 170 64 96 178 172 192 207 220 222 215
18 6 14 49 63 59 76 107 180 189 192 175 132 134 137 203 158 187 213 223 204 188 175 205 120 191 148 138 159 228 146 147 159 189 194 214 264 91 17 19 36 242 218 213 220 226 242
351 350 353 18 38 82 67 80 126 187 196 185 174 157 158 175 174 184 217 197 219 201 196 127 188 148 179 148 127 143 316 291 188 170 186 168 130 102 194 62 28 278 211 226 234 226 222
329 318 335 343 359 355 264 224 171 169 204 222 194 167 180 213 197 202 265 201 231 216 259 184 189 155 175 93 115 96 172 18 278 188 187 140 128 109 128 45 243 251 303 223 225 232 232
284 293 308 319 324 350 348 247 220 227 217 225 233 209 194 222 205 209 213 243 202 244 207 177 202 171 156 134 96 89 33 26 308 314 194 154 143 131 144 206 294 277 206 188 177 252 234
267 273 287 295 294 314 342 338 247 228 228 230 238 233 234 274 226 199 180 195 159 176 36 180 208 196 172 93 144 182 205 156 177 180 344 328 169 128 179 170 215 241 185 135 97 294 228
255 258 270 279 289 279 303 331 289 245 232 240 242 238 231 249 253 202 187 188 183 168 129 138 180 164 198 138 182 184 218 136 169 171 162 185 164 203 196 226 279 193 162 154 104 233 102
254 258 263 270 279 268 275 291 291 299 289 257 258 245 225 233 238 219 214 190 182 178 145 163 120 221 133 206 181 185 202 201 168 167 179 173 176 175 151 212 260 154 121 168 204 156 137
258 258 253 263 270 271 266 278 291 299 296 298 255 250 226 215 220 213 218 203 200 191 181 171 172 156 170 145 192 144 211 135 178 191 255 199 188 168 187 214 196 177 203 211 210 164 134